This is the latest recevied weather packets stored in our database for station/object W1REE. If no packets are shown the sender has not sent any weather packets the latest 10 day(s).
| Time | Temp. | Humidity | Pressure | Rain* | Wind** | Luminosity | Snow |
|---|---|---|---|---|---|---|---|
| 1778092496 | 1.67° C | 84% | 1021.1 hPa | 0 mm | - | 211 W/m² | - |
| 1778092193 | 1.67° C | 82% | 1021.3 hPa | 1.78 mm | - | 191 W/m² | - |
| 1778091890 | 2.22° C | 79% | 1021.3 hPa | 1.78 mm | - | 267 W/m² | - |
| 1778091587 | 2.22° C | 80% | 1021.4 hPa | 1.78 mm | - | 263 W/m² | - |
| 1778091285 | 2.22° C | 82% | 1021.3 hPa | 3.05 mm | - | 296 W/m² | - |
| 1778090982 | 2.22° C | 83% | 1021.3 hPa | 1.27 mm | - | 279 W/m² | - |
| 1778090678 | 1.67° C | 85% | 1021.4 hPa | 1.78 mm | - | 241 W/m² | - |
| 1778090375 | 1.67° C | 85% | 1021.3 hPa | 1.78 mm | - | 180 W/m² | - |
| 1778090072 | 1.11° C | 89% | 1021.3 hPa | 1.78 mm | - | 228 W/m² | - |
| 1778089768 | 0.56° C | 88% | 1021.4 hPa | 0 mm | - | 154 W/m² | - |
| 1778089466 | 0.56° C | 90% | 1021.2 hPa | 0 mm | - | 160 W/m² | - |
| 1778089163 | 0° C | 90% | 1021.3 hPa | 0 mm | - | 113 W/m² | - |
| 1778088860 | 0° C | 93% | 1021.3 hPa | 0 mm | - | 96 W/m² | - |
| 1778088557 | 0° C | 93% | 1021.2 hPa | 0 mm | - | 93 W/m² | - |
| 1778088254 | 0° C | 92% | 1021.2 hPa | 0 mm | - | 86 W/m² | - |
| 1778087951 | 0° C | 92% | 1021.1 hPa | 1.27 mm | - | 74 W/m² | - |
| 1778087648 | -0.56° C | 92% | 1020.8 hPa | 1.27 mm | - | 69 W/m² | - |
| 1778087347 | 0° C | 93% | 1021 hPa | 0 mm | - | 64 W/m² | - |
| 1778087042 | 0° C | 93% | 1021.1 hPa | 0 mm | - | 63 W/m² | - |
| 1778086741 | -0.56° C | 93% | 1021 hPa | 0 mm | - | 62 W/m² | - |
| 1778086439 | 0° C | 92% | 1021.3 hPa | 0 mm | - | 56 W/m² | - |
| 1778086135 | 0° C | 92% | 1021.1 hPa | 0 mm | - | 58 W/m² | - |
| 1778085831 | 0° C | 93% | 1021 hPa | 0 mm | - | 58 W/m² | - |
| 1778085530 | 0° C | 92% | 1021 hPa | 1.78 mm | - | 58 W/m² | - |
| 1778085224 | 0° C | 91% | 1021 hPa | 1.78 mm | - | 55 W/m² | - |
* Rain latest hour (hover to see other rain measurements)
** Current wind speed in m/s (hover to see current wind gust speed)